Terug naar catalogus

COSMOS 564

ActiefMilitairLEO
NORAD 6675·PAYLOAD·🇷🇺 Russia

Gelanceerd Jun 8, 1973 vanaf Plesetsk Cosmodrome

Loading…

Volgende Passages (komende 24 uur)

TLE

VersSource: Space-Track

Epoch: Sep 14, 2026, 09:31 UTC

1 06675U 73037A   26257.39703860 -.00000029  00000-0 -75454-4 0  9994
2 06675  74.0159 237.0755 0054414  53.8505  18.9108 12.56611789443481

Volg COSMOS 564 in realtime met AllMySat

Download on the App Store